SUNNYSIDE Weather Reports


time (UTC)temp
F
wind
direction
speed
knots
gust
knots
rain 1hr
in
rain 24hr
in
rain mn
in
humidity
%
barometer
mb
20260831211051 72 227 5.2 10.4 0.00 1.95 1.40 46 971.9
20260831210551 72 232 3.5 8.7 0.00 1.95 1.40 46 971.8
20260831210050 72 221 4.3 8.7 0.00 1.95 1.40 46 971.8
20260831205550 72 238 2.6 13.0 0.00 1.95 1.40 45 971.9
20260831205050 73 215 4.3 13.0 0.00 1.95 1.40 45 972.0
20260831204554 73 206 3.5 12.2 0.00 1.95 1.40 45 972.1
20260831204050 73 230 6.1 12.2 0.00 1.95 1.40 45 972.1
20260831203550 73 222 6.1 21.7 0.00 1.95 1.40 44 972.2
20260831203050 73 221 7.8 15.6 0.00 1.95 1.40 44 972.4
20260831202551 73 229 6.1 14.8 0.00 1.95 1.40 43 972.4
20260831202048 73 192 7.0 17.4 0.00 1.95 1.40 43 972.2
20260831201548 73 198 7.0 17.4 0.00 1.95 1.40 42 972.2
20260831201049 73 233 6.1 13.0 0.00 1.95 1.40 42 972.2
20260831200547 73 198 5.2 9.6 0.00 1.95 1.40 43 972.4
20260831200053 73 182 4.3 8.7 0.00 1.95 1.40 43 972.6
20260831195544 72 197 2.6 13.9 0.00 1.95 1.40 44 972.7
20260831195044 72 220 7.0 13.9 0.00 1.95 1.40 44 972.8
20260831194544 72 148 4.3 16.5 0.00 1.95 1.40 44 972.8
20260831194043 71 111 7.0 16.5 0.00 1.95 1.40 44 973.0
20260831193543 71 234 3.5 15.6 0.00 1.95 1.40 44 973.1
20260831193045 71 190 2.6 7.0 0.00 1.95 1.40 44 973.1
20260831192542 71 243 1.7 11.3 0.00 1.95 1.40 43 973.2
20260831192045 71 209 3.5 11.3 0.00 1.95 1.40 42 973.3
20260831191542 72 196 4.3 11.3 0.00 1.95 1.40 42 973.4
20260831191042 72 204 4.3 11.3 0.00 1.95 1.40 41 973.4
20260831190542 72 182 5.2 11.3 0.00 1.95 1.40 40 973.6
20260831190100 72 200 5.2 9.6 0.00 1.95 1.40 40 973.5
20260831185542 72 232 4.3 11.3 0.00 1.95 1.40 40 973.7
20260831185041 72 198 7.0 16.5 0.00 1.95 1.40 39 973.6
20260831184542 72 238 7.8 14.8 0.00 1.95 1.40 39 973.8
20260831184041 72 227 6.1 13.9 0.00 1.95 1.40 39 974.1
20260831183541 73 190 4.3 17.4 0.00 1.95 1.40 40 973.8
20260831183041 73 186 7.8 17.4 0.00 1.95 1.40 38 974.0
20260831182541 73 218 8.7 16.5 0.00 1.95 1.40 38 974.1
20260831182040 73 209 4.3 13.0 0.00 1.95 1.40 41 974.1
20260831181540 73 190 6.1 16.5 0.00 1.95 1.40 41 974.2
20260831181040 74 191 7.8 16.5 0.00 1.95 1.40 40 974.2
20260831180538 73 186 8.7 19.1 0.00 1.95 1.40 41 974.4
20260831180046 73 186 7.0 19.1 0.00 1.95 1.40 42 974.4
20260831175537 73 199 8.7 19.1 0.00 1.95 1.40 42 974.5
20260831175037 73 205 5.2 15.6 0.00 1.95 1.40 43 974.7
20260831174540 72 182 7.8 13.0 0.00 1.95 1.40 41 974.9
20260831174036 72 200 6.1 17.4 0.00 1.95 1.40 43 975.1
20260831173534 72 193 7.8 17.4 0.00 1.95 1.40 43 975.1
20260831173035 73 197 7.0 14.8 0.00 1.95 1.40 45 975.1
20260831172535 73 244 7.0 16.5 0.00 1.95 1.40 45 975.3
20260831172034 72 235 7.8 16.5 0.00 1.95 1.40 48 975.4
20260831171534 72 208 4.3 14.8 0.00 1.95 1.40 49 975.4
20260831171033 72 187 4.3 14.8 0.00 1.95 1.40 48 975.5
20260831170532 72 189 5.2 13.9 0.00 1.95 1.40 49 975.5
20260831170031 72 186 6.1 13.9 0.00 1.95 1.40 49 975.6
20260831165535 72 76 5.2 13.9 0.00 1.95 1.40 49 975.7
20260831165031 72 222 5.2 13.9 0.00 1.95 1.40 49 975.7
20260831164545 72 182 5.2 13.0 0.00 1.95 1.40 49 975.7
20260831164030 72 177 4.3 11.3 0.00 1.95 1.40 50 975.8
20260831163529 71 180 6.1 16.5 0.00 1.95 1.40 51 976.0
20260831163028 71 144 8.7 17.4 0.00 1.95 1.40 50 976.0
20260831162527 71 170 6.1 13.0 0.00 1.95 1.40 51 976.1
20260831162026 71 200 5.2 13.0 0.00 1.95 1.40 50 976.2
20260831161525 71 360 6.1 13.0 0.00 1.95 1.40 51 976.1
20260831161025 71 196 6.1 11.3 0.00 1.95 1.40 50 976.3
20260831160524 71 236 4.3 11.3 0.00 1.95 1.40 48 976.3
20260831160023 71 215 5.2 13.9 0.00 1.95 1.40 50 976.3
20260831155524 71 209 2.6 9.6 0.00 1.95 1.40 53 976.2
20260831155021 71 190 3.5 9.6 0.00 1.95 1.40 52 976.3
20260831154519 70 198 4.3 9.6 0.00 1.95 1.40 52 976.3
20260831154020 70 188 3.5 7.8 0.00 1.95 1.40 50 976.2
20260831153517 70 177 2.6 7.0 0.00 1.95 1.40 45 976.3
20260831153014 70 209 3.5 7.0 0.00 1.95 1.40 44 976.3
20260831152515 69 178 2.6 8.7 0.00 1.95 1.40 47 976.4
20260831152012 69 194 5.2 9.6 0.00 1.95 1.40 46 976.6
20260831151512 69 237 3.5 7.8 0.00 1.95 1.40 47 976.5
20260831151009 69 171 3.5 8.7 0.00 1.95 1.40 47 976.5
20260831150510 68 194 3.5 10.4 0.00 1.95 1.40 50 976.8
20260831150009 68 215 3.5 10.4 0.00 1.95 1.40 50 976.7
20260831145504 68 221 3.5 10.4 0.00 1.95 1.40 52 976.7
20260831145002 67 220 6.1 10.4 0.00 1.95 1.40 52 976.7
20260831144505 67 240 4.3 13.0 0.00 1.95 1.40 54 976.5
20260831144100 66 234 7.0 13.0 0.00 1.95 1.40 54 976.6
20260831143559 66 224 6.1 12.2 0.00 1.95 1.40 55 976.6
20260831143103 65 228 2.6 8.7 0.00 1.95 1.40 56 976.6
20260831142556 65 226 3.5 11.3 0.00 1.95 1.40 57 976.5
20260831142058 65 230 5.2 11.3 0.00 1.95 1.40 57 976.5
20260831141603 64 218 1.7 6.1 0.00 1.95 1.40 58 976.5
20260831141053 64 231 3.5 7.0 0.00 1.95 1.40 59 976.7
20260831140550 63 231 2.6 7.0 0.00 1.95 1.40 61 976.7
20260831140052 63 233 2.6 7.0 0.00 1.95 1.40 62 976.6
20260831135551 62 220 1.7 6.1 0.00 1.95 1.40 62 976.6
20260831135050 62 225 2.6 6.1 0.00 1.95 1.40 63 976.4
20260831134554 62 222 0.9 4.3 0.00 1.95 1.40 63 976.5
20260831134049 61 229 0.9 4.3 0.00 1.95 1.40 64 976.4
20260831133549 61 229 1.7 4.3 0.00 1.95 1.40 63 976.5
20260831133049 61 210 2.6 4.3 0.00 1.95 1.40 64 976.4
20260831132549 61 217 1.7 3.5 0.00 1.95 1.40 65 976.3
20260831132049 61 225 0.9 3.5 0.00 1.95 1.40 65 976.4
20260831131552 60 225 0.9 5.2 0.00 1.95 1.40 65 976.4
20260831131048 60 225 1.7 5.2 0.00 1.95 1.40 65 976.4
20260831130548 60 227 2.6 3.5 0.00 1.95 1.40 65 976.4
20260831130049 60 229 0.9 3.5 0.00 1.95 1.40 66 976.3
20260831125549 60 223 0.9 4.3 0.00 1.95 1.40 66 976.3
20260831125048 60 224 1.7 4.3 0.00 1.95 1.40 66 976.3
20260831124549 60 223 0.0 4.3 0.00 1.95 1.40 67 976.3
20260831124048 60 223 0.0 4.3 0.00 1.95 1.40 67 976.2
20260831123547 60 219 1.7 4.3 0.00 1.95 1.40 67 976.2
20260831123047 60 221 0.9 4.3 0.00 1.95 1.40 67 976.2
20260831122549 60 207 1.7 7.8 0.00 1.95 1.40 67 976.2
20260831122047 60 228 3.5 7.8 0.00 1.95 1.40 68 976.2
20260831121547 60 222 1.7 6.1 0.00 1.95 1.40 68 976.0
20260831121046 60 234 2.6 6.1 0.00 1.95 1.40 68 975.9
20260831120546 60 217 1.7 7.8 0.00 1.95 1.40 68 975.9
20260831120045 60 229 2.6 8.7 0.00 1.95 1.40 68 975.9
20260831115544 60 228 5.2 8.7 0.00 1.95 1.40 67 975.8
20260831115044 60 233 6.1 10.4 0.00 1.95 1.40 67 975.7
20260831114544 60 253 7.0 11.3 0.00 1.95 1.40 68 975.6
20260831114043 61 244 6.1 12.2 0.00 1.95 1.40 68 975.6
20260831113542 61 238 7.8 12.2 0.00 1.95 1.40 68 975.5
20260831113041 61 360 7.0 12.2 0.00 1.95 1.40 68 975.5
20260831112545 61 240 7.8 12.2 0.00 1.95 1.40 68 975.4
20260831112039 61 232 5.2 10.4 0.00 1.95 1.40 68 975.6
20260831111551 61 360 6.1 9.6 0.00 1.95 1.40 68 975.5
20260831111037 61 360 4.3 8.7 0.00 1.95 1.40 68 975.5
20260831110538 62 229 4.3 8.7 0.00 1.95 1.40 68 975.4
20260831110045 62 227 5.2 9.6 0.00 1.95 1.40 69 975.4
20260831105536 62 225 5.2 10.4 0.00 1.95 1.40 68 975.4
20260831105035 62 235 6.1 10.4 0.00 1.95 1.40 68 975.3
20260831104549 62 244 5.2 7.0 0.00 1.95 1.40 68 975.2
20260831104036 62 233 4.3 8.7 0.00 1.95 1.40 68 975.1
20260831103535 62 240 4.3 8.7 0.00 1.95 1.40 68 975.1
20260831103036 63 226 4.3 9.6 0.00 1.95 1.40 68 975.1
20260831102532 63 229 5.2 10.4 0.00 1.95 1.40 69 975.1
20260831102032 63 234 7.0 10.4 0.00 1.95 1.40 69 975.0
20260831101534 63 254 7.0 10.4 0.00 1.95 1.40 69 975.0
20260831101030 63 239 5.2 8.7 0.00 1.95 1.40 69 974.9
20260831100529 63 225 3.5 8.7 0.00 1.95 1.40 69 975.0
20260831100028 63 234 2.6 7.0 0.00 1.95 1.40 69 975.1
20260831095527 63 228 4.3 7.0 0.00 1.95 1.40 69 975.0
20260831095030 63 232 4.3 7.0 0.00 1.95 1.40 69 974.9
20260831094530 63 230 3.5 7.0 0.00 1.95 1.40 69 974.9
20260831094026 63 221 2.6 7.0 0.00 1.95 1.40 69 974.8
20260831093526 64 234 4.3 8.7 0.00 1.95 1.40 69 974.8
20260831093037 64 241 3.5 7.8 0.00 1.95 1.40 69 974.7
20260831092524 64 231 4.3 7.0 0.00 1.95 1.40 69 974.8
20260831092028 64 233 2.6 6.1 0.00 1.95 1.40 69 974.9
20260831091524 64 240 0.9 6.1 0.00 1.95 1.40 69 974.9
20260831091024 64 227 1.7 7.0 0.00 1.95 1.40 69 975.0
20260831090523 64 232 1.7 7.0 0.00 1.95 1.40 69 975.0
20260831090026 64 230 3.5 8.7 0.00 1.95 1.40 69 975.0
20260831085524 64 240 4.3 8.7 0.00 1.95 1.40 69 974.9
20260831085023 64 225 5.2 9.6 0.00 1.95 1.40 69 975.0
20260831084523 64 227 3.5 7.8 0.00 1.95 1.40 69 975.0
20260831084022 64 232 3.5 7.0 0.00 1.95 1.40 69 974.9
20260831083522 64 225 3.5 7.0 0.00 1.95 1.40 69 974.9
20260831083023 65 232 2.6 7.0 0.00 1.95 1.40 69 974.9
20260831082523 65 225 3.5 6.1 0.00 1.95 1.40 69 974.8
20260831082025 65 219 1.7 7.0 0.00 1.95 1.40 69 974.7
20260831081522 65 232 4.3 8.7 0.00 1.95 1.40 69 974.8
20260831081021 65 223 4.3 8.7 0.00 1.95 1.40 69 974.8
20260831080521 65 240 1.7 5.2 0.00 1.95 1.40 69 974.9
20260831080024 65 209 1.7 4.3 0.00 1.95 1.40 69 974.8
20260831075520 64 196 0.0 2.6 0.00 1.95 1.40 69 974.8
20260831075020 64 192 0.0 2.6 0.00 1.95 1.40 69 974.9
20260831074521 64 185 0.0 2.6 0.00 1.95 1.40 69 974.9
20260831074020 64 202 0.0 3.5 0.00 1.95 1.40 69 974.7
20260831073520 64 142 0.0 3.5 0.00 1.95 1.40 69 974.7
20260831073020 64 196 1.7 3.5 0.00 1.95 1.40 69 974.6
20260831072520 64 190 0.9 2.6 0.00 1.95 1.40 69 974.7
20260831072019 64 193 0.9 3.5 0.01 1.95 1.40 69 974.6
20260831071619 64 196 1.7 3.5 0.01 1.95 1.40 69 974.6
20260831071018 64 194 1.7 3.5 0.03 1.95 1.40 69 974.7
20260831070520 64 192 0.9 3.5 0.05 1.95 1.40 69 974.7
20260831070018 64 209 0.9 2.6 0.07 1.95 1.40 69 974.6
20260831065521 64 170 0.9 1.7 0.08 1.95 1.40 69 974.5
20260831065016 64 167 0.0 1.7 0.08 1.95 1.40 69 974.4
20260831064517 64 171 0.0 4.3 0.09 1.95 1.40 69 974.5
20260831064018 64 123 0.9 6.1 0.10 1.95 1.40 69 974.3
20260831063516 64 143 1.7 6.1 0.12 1.95 1.40 69 974.3
20260831063016 64 102 2.6 6.1 0.16 1.95 1.40 69 974.3
20260831062517 64 134 2.6 6.1 0.28 1.95 1.40 68 974.4
20260831062015 64 150 0.9 6.1 0.44 1.94 1.39 68 973.7
20260831061514 64 98 1.7 6.1 0.60 1.94 1.39 68 973.1
20260831061011 65 96 0.0 2.6 0.95 1.91 1.36 68 974.0
20260831060511 65 96 0.0 3.5 1.23 1.90 1.35 68 974.0
20260831060009 65 96 0.9 3.5 1.33 1.88 1.33 68 974.1
20260831055508 65 138 0.0 4.3 1.41 1.87 1.32 68 974.5
20260831055007 65 360 1.7 4.3 1.56 1.87 1.32 68 974.8
20260831054506 65 140 2.6 6.1 1.70 1.86 1.31 67 975.0
20260831054008 65 114 1.7 7.0 1.84 1.85 1.30 67 975.3
20260831053509 65 194 1.7 13.9 1.83 1.83 1.28 67 975.6
20260831053011 65 219 1.7 13.9 1.77 1.77 1.22 67 975.9
20260831052503 66 217 5.2 9.6 1.63 1.63 1.08 66 976.3
20260831052004 67 205 4.3 10.4 1.47 1.47 0.92 66 977.1
20260831051501 67 123 5.2 11.3 1.25 1.25 0.70 65 977.2
20260831051101 67 167 6.1 11.3 1.01 1.01 0.46 65 976.9
20260831050559 67 150 1.7 11.3 0.69 0.69 0.14 63 975.6
20260831050056 67 144 7.8 11.3 0.56 0.56 0.02 61 975.0
20260831045556 68 108 6.1 10.4 0.47 0.47 0.47 58 975.4
20260831045059 68 106 4.3 10.4 0.33 0.33 0.33 57 975.2
20260831044613 69 105 5.2 9.6 0.19 0.19 0.19 55 975.3
20260831044056 69 151 3.5 10.4 0.02 0.02 0.02 54 975.3
20260831043556 70 123 5.2 12.2 0.00 0.00 0.00 54 975.2
20260831043054 70 126 6.1 12.2 0.00 0.00 0.00 53 975.3
20260831042557 70 121 6.1 10.4 0.00 0.00 0.00 53 975.2
20260831042057 70 163 7.0 10.4 0.00 0.00 0.00 53 975.4
20260831041600 70 360 6.1 10.4 0.00 0.00 0.00 53 975.4
20260831041053 70 101 6.1 11.3 0.00 0.00 0.00 53 975.4
20260831040552 70 91 6.1 11.3 0.00 0.00 0.00 53 975.6
20260831040050 71 158 6.1 11.3 0.00 0.00 0.00 53 975.9
20260831035550 71 112 5.2 10.4 0.00 0.00 0.00 53 976.0
20260831035050 71 105 6.1 13.0 0.00 0.00 0.00 52 976.0
20260831034555 71 183 7.8 13.0 0.00 0.00 0.00 52 976.1
20260831034050 71 140 7.0 13.9 0.00 0.00 0.00 52 976.2
20260831033550 71 127 7.0 13.9 0.00 0.00 0.00 52 976.2
20260831033053 71 100 8.7 16.5 0.00 0.00 0.00 52 976.2
20260831032550 71 113 8.7 16.5 0.00 0.00 0.00 52 976.1
20260831032050 71 106 7.0 12.2 0.00 0.00 0.00 52 976.1
20260831031549 71 127 7.0 13.0 0.00 0.00 0.00 52 976.0
20260831031047 72 126 6.1 12.2 0.00 0.00 0.00 52 976.2
20260831030547 72 105 7.0 13.0 0.00 0.00 0.00 51 976.3
20260831030047 72 98 7.0 13.0 0.00 0.00 0.00 51 976.3
20260831025547 72 128 7.8 12.2 0.00 0.00 0.00 52 976.3
20260831025046 72 128 5.2 9.6 0.00 0.00 0.00 52 976.4
20260831024546 71 114 4.3 9.6 0.00 0.00 0.00 52 976.6
20260831024047 71 126 4.3 9.6 0.00 0.00 0.00 52 976.7
20260831023546 71 144 5.2 8.7 0.00 0.00 0.00 52 976.7
20260831023046 71 360 5.2 8.7 0.00 0.00 0.00 52 976.7
20260831022546 71 101 4.3 7.8 0.00 0.00 0.00 52 976.8
20260831022046 71 109 4.3 7.0 0.00 0.00 0.00 52 976.8
20260831021546 71 113 3.5 7.0 0.00 0.00 0.00 52 976.7
20260831021045 71 92 1.7 6.1 0.00 0.00 0.00 52 976.7
20260831020544 72 146 2.6 7.8 0.00 0.00 0.00 52 976.7
20260831020045 72 360 2.6 7.8 0.00 0.00 0.00 52 976.5
20260831015544 72 134 3.5 8.7 0.00 0.00 0.00 52 976.6
20260831015044 72 115 2.6 6.1 0.00 0.00 0.00 52 976.5
20260831014544 72 100 3.5 6.1 0.00 0.00 0.00 52 976.5
20260831014045 72 103 3.5 6.1 0.00 0.00 0.00 52 976.5
20260831013545 72 98 4.3 7.0 0.00 0.00 0.00 52 976.6
20260831013045 72 144 2.6 7.0 0.00 0.00 0.00 52 976.6
20260831012545 73 118 2.6 7.8 0.00 0.00 0.00 52 976.4
20260831012043 73 107 1.7 7.8 0.00 0.00 0.00 53 976.4
20260831011545 73 360 2.6 5.2 0.00 0.00 0.00 53 976.4
20260831011142 73 114 2.6 5.2 0.00 0.00 0.00 54 976.5
20260831010542 74 132 1.7 5.2 0.00 0.00 0.00 54 976.4
20260831010045 75 104 0.9 6.1 0.00 0.00 0.00 54 976.4
20260831005541 75 126 1.7 8.7 0.00 0.00 0.00 53 976.5
20260831005043 75 146 1.7 8.7 0.00 0.00 0.00 53 976.7
20260831004541 75 96 2.6 6.1 0.00 0.00 0.00 53 976.8
20260831004044 76 105 2.6 7.8 0.00 0.00 0.00 53 976.9
20260831003541 76 360 1.7 7.8 0.00 0.00 0.00 53 976.8
20260831003041 76 109 2.6 7.0 0.00 0.00 0.00 53 976.9
20260831002540 76 90 2.6 7.0 0.00 0.00 0.00 53 976.9
20260831002041 77 98 3.5 7.0 0.00 0.00 0.00 52 976.9
20260831001541 77 85 2.6 6.1 0.00 0.00 0.00 52 977.0
20260831001039 77 88 1.7 7.8 0.00 0.00 0.00 52 976.9
20260831000540 77 186 3.5 7.8 0.00 0.00 0.00 52 977.0
20260831000041 78 103 2.6 8.7 0.00 0.00 0.00 51 977.0
20260830235544 78 82 2.6 7.0 0.00 0.00 0.00 51 976.8
20260830235039 78 90 2.6 6.1 0.00 0.00 0.00 51 976.8
20260830234554 78 90 2.6 7.0 0.00 0.00 0.00 50 976.9
20260830234039 78 103 1.7 8.7 0.00 0.00 0.00 50 977.1
20260830233539 79 87 3.5 9.6 0.00 0.00 0.00 49 977.1
20260830233039 79 94 2.6 7.8 0.00 0.00 0.00 49 977.0
20260830232539 79 98 2.6 7.8 0.00 0.00 0.00 49 976.9
20260830232039 79 98 2.6 7.8 0.00 0.00 0.00 49 976.9
20260830231538 79 84 2.6 7.8 0.00 0.00 0.00 49 976.9
20260830231037 79 109 2.6 7.8 0.00 0.00 0.00 48 976.9
20260830230537 79 105 1.7 8.7 0.00 0.00 0.00 49 976.9
20260830230037 79 102 4.3 10.4 0.00 0.00 0.00 48 976.8
20260830225537 80 106 5.2 10.4 0.00 0.00 0.00 47 976.7
20260830225037 79 183 2.6 8.7 0.00 0.00 0.00 48 976.6
20260830224536 79 116 3.5 8.7 0.00 0.00 0.00 48 976.9
20260830224035 79 124 4.3 9.6 0.00 0.00 0.00 47 977.0
20260830223534 79 117 5.2 9.6 0.00 0.00 0.00 47 977.2
20260830223038 79 84 4.3 7.8 0.00 0.00 0.00 48 977.4
20260830222533 79 131 2.6 7.8 0.00 0.00 0.00 48 977.5
20260830222035 80 113 1.7 5.2 0.00 0.00 0.00 48 977.6
20260830221536 80 91 1.7 6.1 0.00 0.00 0.00 47 977.7
20260830221033 80 95 2.6 9.6 0.00 0.00 0.00 46 977.8
20260830220530 80 88 3.5 9.6 0.00 0.00 0.00 46 977.9
20260830220030 81 114 3.5 9.6 0.00 0.00 0.00 46 978.0
20260830215529 81 150 3.5 12.2 0.00 0.00 0.00 45 978.1
20260830215033 81 159 7.0 11.3 0.00 0.00 0.00 45 978.1
20260830214529 80 111 7.0 13.0 0.00 0.00 0.00 45 978.3
20260830214028 80 100 7.8 13.0 0.00 0.00 0.00 46 978.4
20260830213527 80 104 6.1 11.3 0.00 0.00 0.00 45 978.3
20260830213027 80 360 5.2 13.0 0.00 0.00 0.00 45 978.4
20260830212527 81 86 7.0 13.0 0.00 0.00 0.00 44 978.3
20260830212026 81 86 7.8 13.0 0.00 0.00 0.00 44 978.4
20260830211527 80 132 7.0 13.0 0.00 0.00 0.00 43 978.6